To NAV CANADA Home Page Login to a new session Search on AWWS site Feedback and Comments Disclaimer Vers la page française équivalente Tips FAQ What's new on the site To the Forecasts and Observations / NOTAM section To "File a Flight Plan" website Publications and other links Update of the User's profile FIC Telephone Numbers My Weather Data Folder Route Weather Data Regional Weather Data Local Weather Data To the Forecasts and Observations / NOTAM section
Request Generated 10/17/2017 at 01:47:09 UTC . Weather information available at that time is displayed.

METAR/TAF

FARO/YT    

LWIS CZFA 170100Z AUTO 32006KT M02/M04 A2943=
LWIS CZFA 170000Z AUTO 29004KT M02/M04 A2942=
LWIS CZFA 162300Z AUTO 34002KT M02/M04 A2943=

*** REMARK        : Forecast period has ended; this was the last TAF issued
*** REMARQUE : La période de prévision est échue; ceci était le dernier TAF qui a été émis
TAF AMD CZFA 161937Z 1619/1622 VRB03KT 6SM -SN SCT007 OVC040 TEMPO
1619/1622 1SM -SN BR BKN007 OVC020
RMK NXT FCST WILL BE ISSUED AT 171545Z=
Your time UTC time
Weather data provided by Environment Canada and NAV CANADA